STARLINK-5463 (55673 NORAD) Tracking and Keplerian Element Data

This shows tracking and keplerian element data for the satellite.

Feedback or suggestion? Click here.




ElementValue
Catalog55673
NameSTARLINK-5463
Epoch Orbit130
Epoch Day62.91667824
Epoch Year2023
RAAN110.1806
Inclination69.9994
Eccentricity0.0003586
Argument of Perigee280.3511
Mean Anonmoly330.589
Mean Motion15.75312967
Decay Rate-0.01032028
L11 55673U 23021AX 23062.91667824 -.01032028 00000+0 -75590-2 0 9995
L22 55673 69.9994 110.1806 0003586 280.3511 330.5890 15.75312967 1301



Live tracking and technical data element details for STARLINK-5463 (NORAD 55673). STARLINK-5463 can be tracked NOW for your location showing map with azimuth and elevation plus other details from your city location.







IsCatalogInMostPopularTable: catalog: 55673, numindb: 1
Update: records affected: 1



GetName: 55673 STARLINK-5463

Hit Count: updated at: Wed, 22 Mar 2023 16:34:22 GMT